CEST,Max TemperatureF,Mean TemperatureF,Min TemperatureF,Max Dew PointF,MeanDew PointF,Min DewpointF,Max Humidity, Mean Humidity, Min Humidity, Max Sea Level PressureIn, Mean Sea Level PressureIn, Min Sea Level PressureIn, Max VisibilityMiles, Mean VisibilityMiles, Min VisibilityMiles, Max Wind SpeedMPH, Mean Wind SpeedMPH, Max Gust SpeedMPH,PrecipitationIn, CloudCover, Events, WindDirDegrees
2012-7-1,91,84,77,73,69,59,70,60,42,29.98,29.96,29.92,,,,12,4,,0.00,,,172
2012-7-2,91,83,75,75,70,64,83,66,43,30.01,29.97,29.95,6,6,5,12,4,,0.00,,,173
2012-7-3,89,82,75,73,69,64,89,67,46,30.01,29.96,29.92,6,6,5,13,4,,0.00,4,,225
2012-7-4,87,79,71,68,63,48,83,58,25,29.95,29.90,29.86,6,6,6,10,4,,0.00,1,,168
2012-7-5,87,79,71,68,63,50,83,59,27,29.89,29.87,29.83,6,6,6,9,4,,0.00,1,,55
2012-7-6,86,78,71,68,66,63,83,65,48,29.95,29.89,29.86,6,6,6,10,4,,0.00,2,,229
2012-7-7,87,80,73,72,69,64,83,68,46,29.95,29.95,29.92,6,6,6,13,4,,0.00,1,,265
2012-7-8,89,81,73,72,69,59,88,66,36,29.95,29.94,29.92,5,5,4,10,4,,0.00,,,196
2012-7-9,91,81,71,72,66,46,89,58,22,29.95,29.91,29.89,,,,10,3,,0.00,,,205
2012-7-10,91,83,75,72,67,59,78,58,34,29.98,29.94,29.92,6,6,6,12,4,,0.00,3,,178
2012-7-11,89,81,73,73,68,59,89,64,36,30.01,29.99,29.95,6,6,6,13,4,,0.00,,,144
2012-7-12,87,80,73,75,69,64,83,67,46,30.01,29.95,29.92,6,5,3,10,4,,0.00,4,Rain-Thunderstorm,350
2012-7-13,87,79,71,73,67,54,94,66,31,29.95,29.92,29.89,6,6,5,16,6,24,0.00,1,,269
2012-7-14,87,78,69,72,67,63,78,68,49,29.95,29.93,29.89,,,,12,3,,0.00,,,188
2012-7-15,89,81,73,77,68,57,83,65,35,29.98,29.91,29.89,6,6,6,14,5,,0.00,2,,228
2012-7-16,84,78,73,68,65,57,83,61,47,30.09,30.03,29.98,6,6,6,12,6,,0.00,2,,232
2012-7-17,91,82,73,66,56,46,69,43,24,30.09,30.06,30.01,6,6,6,16,7,,0.00,1,,21
2012-7-18,93,83,73,55,50,45,47,33,19,30.06,30.03,29.98,,,,15,7,,0.00,,,14
2012-7-19,89,81,73,66,58,50,65,44,29,30.04,29.98,29.95,,,,13,5,,0.00,,,182
2012-7-20,87,79,71,72,65,55,78,62,35,29.98,29.96,29.95,,,,13,3,,0.00,,,194
2012-7-21,89,80,71,70,59,48,78,51,25,29.95,29.92,29.89,6,6,6,10,3,,0.00,1,,191
2012-7-22,89,81,73,70,62,57,83,55,35,29.92,29.85,29.80,6,6,5,12,4,,0.00,2,,326
2012-7-23,82,74,66,66,63,59,94,70,45,29.89,29.81,29.77,6,6,2,14,8,22,0.00,3,Rain-Thunderstorm,28
2012-7-24,82,73,64,66,63,61,100,70,48,29.89,29.85,29.83,6,6,3,14,6,,0.00,5,Rain-Thunderstorm,16
2012-7-25,84,76,69,70,65,54,83,68,35,30.01,29.94,29.89,6,6,6,10,5,,0.00,3,,295
2012-7-26,86,78,71,72,68,63,94,70,45,30.01,29.99,29.98,6,5,4,12,4,,0.00,2,,211
2012-7-27,91,82,73,73,67,59,89,63,34,29.98,29.95,29.92,6,5,4,15,4,,0.00,1,,249
2012-7-28,89,82,75,77,69,63,89,65,40,29.95,29.92,29.89,,,,12,4,,0.00,,,165
2012-7-29,91,82,73,77,70,54,94,69,29,29.95,29.91,29.89,6,5,3,13,3,,0.00,1,,185
2012-7-30,89,83,77,77,73,70,94,74,55,29.98,29.94,29.92,6,5,5,12,4,,0.00,3,,157
2012-7-31,89,81,73,75,69,57,83,66,33,29.95,29.93,29.89,6,6,5,10,4,,0.00,1,,203